Retour au catalogue

CHINASAT-6E

ActifCommunicationsGEO
NORAD 58253·PAYLOAD·🇨🇳 China

Lancé Nov 9, 2023 depuis Xichang Satellite Launch Center

Loading…

TLE

FraisSource: Space-Track

Époque: Sep 14, 2026, 14:21 UTC

1 58253U 23172A   26257.59798111 -.00000369  00000-0  00000-0 0  9990
2 58253   0.0232 116.1660 0002427  40.0383 168.1454  1.00269638 10551

Suivez CHINASAT-6E en temps réel avec AllMySat

Download on the App Store